EW7114 Weather Reports


Display with metric or nautical units.
time (UTC)temp
F
wind
direction
speed
MPH
gust
MPH
rain 1hr
in
rain 24hr
in
rain mn
in
humidity
%
barometer
mb
20260504202054 66 332 13.0 22.0 0.00 0.00 0.00 39 1000.7
20260504201553 66 345 14.0 22.0 0.00 0.00 0.00 39 1000.7
20260504201053 67 329 12.0 16.0 0.00 0.00 0.00 38 1000.7
20260504200552 67 318 8.0 18.0 0.00 0.00 0.00 38 1000.7
20260504200052 66 339 11.0 18.0 0.00 0.00 0.00 37 1000.7
20260504195552 67 313 2.0 14.0 0.00 0.00 0.00 36 1000.6
20260504195052 66 201 4.0 14.0 0.00 0.00 0.00 38 1000.4
20260504194552 67 190 3.0 10.0 0.00 0.00 0.00 38 1000.4
20260504194052 67 195 5.0 10.0 0.00 0.00 0.00 38 1000.4
20260504193552 67 228 7.0 10.0 0.00 0.00 0.00 38 1000.5
20260504193052 67 175 5.0 10.0 0.00 0.00 0.00 38 1000.4
20260504192551 68 220 5.0 12.0 0.00 0.00 0.00 38 1000.4
20260504192051 68 244 5.0 11.0 0.00 0.00 0.00 36 1000.4
20260504191554 68 253 5.0 12.0 0.00 0.00 0.00 35 1000.4
20260504191051 68 252 7.0 16.0 0.00 0.00 0.00 36 1000.3
20260504190550 68 249 10.0 16.0 0.00 0.00 0.00 35 1000.3
20260504190053 68 227 7.0 16.0 0.00 0.00 0.00 35 1000.3
20260504185550 68 258 9.0 16.0 0.00 0.00 0.00 36 1000.4
20260504185049 68 265 10.0 20.0 0.00 0.00 0.00 34 1000.4
20260504184549 69 246 13.0 20.0 0.00 0.00 0.00 34 1000.2
20260504184048 70 311 0.0 6.0 0.00 0.00 0.00 32 1000.3
20260504183548 70 251 1.0 8.0 0.00 0.00 0.00 32 1000.5
20260504183046 71 253 3.0 12.0 0.00 0.00 0.00 32 1000.7
20260504182546 71 209 4.0 12.0 0.00 0.00 0.00 32 1000.7
20260504182046 72 207 6.0 10.0 0.00 0.00 0.00 33 1000.7
20260504181544 71 235 3.0 9.0 0.00 0.00 0.00 33 1000.8
20260504181043 71 233 3.0 14.0 0.00 0.00 0.00 32 1000.8
20260504180541 71 134 8.0 14.0 0.00 0.00 0.00 33 1001.1
20260504180041 70 157 2.0 9.0 0.00 0.00 0.00 33 1001.1
20260504175540 70 88 4.0 11.0 0.00 0.00 0.00 33 1001.1
20260504175040 70 262 2.0 10.0 0.00 0.00 0.00 33 1001.1
20260504174540 70 197 5.0 10.0 0.00 0.00 0.00 33 1001.3
20260504174039 70 107 8.0 12.0 0.00 0.00 0.00 34 1001.3
20260504173537 70 43 4.0 12.0 0.00 0.00 0.00 34 1001.5
20260504173040 69 151 7.0 13.0 0.00 0.00 0.00 35 1001.5
20260504172536 69 125 3.0 13.0 0.00 0.00 0.00 34 1001.6
20260504172036 69 90 4.0 12.0 0.00 0.00 0.00 35 1001.6
20260504171537 69 55 4.0 13.0 0.00 0.00 0.00 35 1001.6
20260504171034 69 165 4.0 12.0 0.00 0.00 0.00 34 1001.8
20260504170532 69 140 6.0 12.0 0.00 0.00 0.00 36 1001.7
20260504151005 59 179 7.0 10.0 0.00 0.00 0.00 49 1003.0
20260504150505 59 177 7.0 11.0 0.00 0.00 0.00 49 1003.1
20260504141049 52 180 5.0 7.0 0.00 0.00 0.00 49 1003.8
20260504140549 52 175 4.0 6.0 0.00 0.00 0.00 47 1003.8
20260504130543 49 201 2.0 4.0 0.00 0.00 0.00 46 1003.8
20260504110534 51 165 2.0 5.0 0.00 0.00 0.00 53 1004.3
20260504100526 49 204 3.0 6.0 0.00 0.00 0.00 53 1004.4
20260504081613 42 248 1.0 6.0 0.00 0.00 0.00 54 1004.5
20260504081012 43 248 4.0 6.0 0.00 0.00 0.00 54 1004.5
20260504080512 43 249 2.0 6.0 0.00 0.00 0.00 54 1004.7
20260504050535 45 213 2.0 4.0 0.00 0.00 0.00 53 1004.3
20260504045531 45 176 3.0 4.0 0.00 0.00 0.00 53 1004.3
20260504045030 46 318 0.0 1.0 0.00 0.00 0.00 53 1004.3
20260504044529 46 318 0.0 2.0 0.00 0.00 0.00 54 1004.3
20260504044027 46 318 0.0 3.0 0.00 0.00 0.00 54 1004.3
20260504043527 47 318 0.0 3.0 0.00 0.00 0.00 54 1004.3
20260504043024 48 318 0.0 3.0 0.00 0.00 0.00 54 1004.2
20260504042523 47 318 1.0 3.0 0.00 0.00 0.00 54 1004.2
20260504042021 47 318 0.0 2.0 0.00 0.00 0.00 54 1004.3
20260504041535 47 318 0.0 2.0 0.00 0.00 0.00 54 1004.3
20260504041019 46 318 0.0 3.0 0.00 0.00 0.00 52 1004.3
20260504040517 46 318 0.0 3.0 0.00 0.00 0.00 51 1004.4
20260504040020 46 70 2.0 3.0 0.00 0.00 0.00 50 1004.3
20260504035514 47 160 0.0 2.0 0.00 0.00 0.00 50 1004.2
20260504035013 47 160 1.0 4.0 0.00 0.00 0.00 49 1004.2
20260504034511 49 160 2.0 5.0 0.00 0.00 0.00 48 1004.2
20260504034009 51 163 2.0 5.0 0.00 0.00 0.00 46 1004.2
20260504033508 54 118 2.0 4.0 0.00 0.00 0.00 41 1004.2
20260504033006 57 91 1.0 4.0 0.00 0.00 0.00 41 1004.2
20260504032505 57 305 2.0 4.0 0.00 0.00 0.00 37 1004.1
20260504032003 56 305 1.0 2.0 0.00 0.00 0.00 42 1004.1
20260504031503 56 51 0.0 2.0 0.00 0.00 0.00 41 1004.1
20260504031004 56 51 0.0 1.0 0.00 0.00 0.00 42 1004.0
20260504030501 56 51 0.0 2.0 0.00 0.00 0.00 40 1003.9
20260504030100 56 51 0.0 3.0 0.00 0.00 0.00 39 1004.0
20260504025559 57 51 1.0 3.0 0.00 0.00 0.00 40 1004.0
20260504025058 57 51 1.0 3.0 0.00 0.00 0.00 39 1003.9
20260504024556 57 301 0.0 3.0 0.00 0.00 0.00 38 1003.8
20260504024056 58 293 1.0 4.0 0.00 0.00 0.00 39 1003.8
20260504023553 58 305 2.0 4.0 0.00 0.00 0.00 37 1003.8
20260504023051 59 305 2.0 4.0 0.00 0.00 0.00 37 1003.8
20260504022550 60 323 3.0 5.0 0.00 0.00 0.00 35 1003.7
20260504022049 60 302 2.0 5.0 0.00 0.00 0.00 37 1003.7
20260504021552 60 313 2.0 6.0 0.00 0.00 0.00 36 1003.7
20260504021049 61 309 3.0 5.0 0.00 0.00 0.00 36 1003.7
20260504020547 61 311 3.0 5.0 0.00 0.00 0.00 36 1003.8
20260504020044 62 314 2.0 5.0 0.00 0.00 0.00 36 1003.7
20260504015541 63 332 1.0 4.0 0.00 0.00 0.00 35 1003.7
20260504015040 64 345 3.0 4.0 0.00 0.00 0.00 33 1003.8
20260504014540 64 336 1.0 4.0 0.00 0.00 0.00 31 1003.7
20260504014037 64 350 1.0 4.0 0.00 0.00 0.00 33 1003.7
20260504013535 65 350 1.0 3.0 0.00 0.00 0.00 32 1003.7
20260504013044 65 359 0.0 3.0 0.00 0.00 0.00 32 1003.8
20260504012532 66 359 0.0 3.0 0.00 0.00 0.00 32 1003.9
20260504012032 66 10 1.0 5.0 0.00 0.00 0.00 31 1003.9
20260504011530 67 8 2.0 6.0 0.00 0.00 0.00 30 1003.9
20260504011028 67 28 3.0 11.0 0.00 0.00 0.00 29 1004.0
20260504010527 68 3 5.0 11.0 0.00 0.00 0.00 27 1004.0
20260504010026 68 345 4.0 10.0 0.00 0.00 0.00 27 1004.0
20260504005526 69 350 5.0 10.0 0.00 0.00 0.00 25 1004.1
20260504005023 69 312 5.0 10.0 0.00 0.00 0.00 26 1004.1
20260504004522 69 345 6.0 11.0 0.00 0.00 0.00 26 1004.1
20260504004022 69 321 7.0 12.0 0.00 0.00 0.00 27 1004.2
20260504003520 69 323 5.0 12.0 0.00 0.00 0.00 27 1004.2
20260504003018 69 8 6.0 11.0 0.00 0.00 0.00 26 1004.2
20260504002517 69 9 6.0 11.0 0.00 0.00 0.00 27 1004.2
20260504002017 70 21 7.0 15.0 0.00 0.00 0.00 25 1004.3
20260504001524 70 317 7.0 15.0 0.00 0.00 0.00 25 1004.3
20260504001015 70 350 5.0 17.0 0.00 0.00 0.00 25 1004.4
20260504000515 71 321 6.0 17.0 0.00 0.00 0.00 24 1004.3
20260504000012 71 5 7.0 13.0 0.00 0.00 0.00 25 1004.3
20260503235510 71 350 6.0 10.0 0.00 0.00 0.00 24 1004.4
20260503235009 71 15 6.0 10.0 0.00 0.00 0.00 25 1004.3
20260503234508 70 355 5.0 10.0 0.00 0.00 0.00 25 1004.4
20260503234007 71 21 5.0 10.0 0.00 0.00 0.00 25 1004.4
20260503233506 71 350 5.0 9.0 0.00 0.00 0.00 24 1004.5
20260503233007 71 350 5.0 8.0 0.00 0.00 0.00 24 1004.5
20260503232502 71 345 4.0 8.0 0.00 0.00 0.00 24 1004.7
20260503232101 71 355 4.0 9.0 0.00 0.00 0.00 24 1004.8
20260503231600 71 19 4.0 9.0 0.00 0.00 0.00 24 1004.7
20260503231100 71 15 4.0 9.0 0.00 0.00 0.00 23 1004.8
20260503230559 71 4 5.0 10.0 0.00 0.00 0.00 24 1004.7
20260503230101 71 350 6.0 12.0 0.00 0.00 0.00 23 1004.7
20260503225553 71 322 8.0 13.0 0.00 0.00 0.00 23 1004.7
20260503225052 72 341 8.0 13.0 0.00 0.00 0.00 24 1004.7
20260503224559 72 5 7.0 13.0 0.00 0.00 0.00 24 1004.7
20260503224050 72 345 9.0 13.0 0.00 0.00 0.00 24 1004.8
20260503223547 72 30 9.0 13.0 0.00 0.00 0.00 23 1004.9
20260503223046 72 355 7.0 15.0 0.00 0.00 0.00 22 1005.0
20260503222544 72 38 8.0 15.0 0.00 0.00 0.00 23 1005.0
20260503222043 72 32 10.0 14.0 0.00 0.00 0.00 23 1005.1
20260503221556 72 30 9.0 14.0 0.00 0.00 0.00 23 1005.1
20260503221044 73 35 8.0 16.0 0.00 0.00 0.00 24 1005.1
20260503220539 73 355 9.0 16.0 0.00 0.00 0.00 24 1005.2
20260503220038 73 359 9.0 15.0 0.00 0.00 0.00 23 1005.4
20260503215536 73 330 8.0 15.0 0.00 0.00 0.00 25 1005.5
20260503215034 72 336 5.0 11.0 0.00 0.00 0.00 23 1005.6
20260503214539 72 332 6.0 17.0 0.00 0.00 0.00 24 1005.8
20260503214031 73 9 9.0 17.0 0.00 0.00 0.00 24 1005.8
20260503213530 73 45 8.0 16.0 0.00 0.00 0.00 25 1005.8
20260503213028 73 350 11.0 16.0 0.00 0.00 0.00 24 1005.8
20260503212526 73 12 9.0 15.0 0.00 0.00 0.00 24 1006.0
20260503212026 72 359 3.0 8.0 0.00 0.00 0.00 22 1006.1
20260503211524 72 236 3.0 8.0 0.00 0.00 0.00 19 1006.3
20260503211023 72 329 2.0 6.0 0.00 0.00 0.00 20 1006.5
20260503210521 72 297 4.0 9.0 0.00 0.00 0.00 20 1006.5
20260503210019 72 321 2.0 12.0 0.00 0.00 0.00 20 1006.5
20260503205518 73 247 8.0 12.0 0.00 0.00 0.00 22 1006.8
20260503205017 73 232 5.0 11.0 0.00 0.00 0.00 21 1006.8
20260503204516 73 191 1.0 10.0 0.00 0.00 0.00 20 1006.8
20260503204013 73 126 6.0 20.0 0.00 0.00 0.00 20 1006.9
20260503203516 73 190 4.0 20.0 0.00 0.00 0.00 20 1006.9
20260503203012 73 184 1.0 6.0 0.00 0.00 0.00 19 1007.1
20260503202511 73 166 3.0 6.0 0.00 0.00 0.00 19 1007.1